Location: Saint-Hippolyte
(43.6394°N, 4.7559°E)
Time: 14:25:58
(UTC+00:00)

Cosmos 2228 - Pass Details

Date: 24 October 2020
Orbit: 590 x 617 km, 82.5° (Epoch: 23 November)

Event Time Altitude Azimuth Distance (km) Brightness Sun altitude
Rises 17:56:34 0° 196° (SSW) 2,809 6.7 -14.0°
Reaches altitude 10° 17:58:47 10° 200° (SSW) 1,914 5.9 -14.4°
Maximum altitude 18:02:57 59° 280° (W) 688 3.6 -15.1°
Drops below altitude 10° 18:07:11 10° 1° (N) 1,939 5.6 -15.9°
Sets 18:09:26 0° 5° (N) 2,849 6.4 -16.3°
